Regional Weather Roundup
Issued by NWS

Home | Current Version | Previous Version | Graphics & Text | Print | Product List | Glossary Off
Versions: 1 2 3 4 5 6 7 8 9 10 11 12 13 14 15 16 17 18 19 20 21 22 23 24 25 26 27 28 29 30 31 32 33 34 35 36 37 38 39 40 41 42 43 44 45 46 47 48 49 50

000
ASUS43 KFSD 011210
RWRSD

WEATHER ROUNDUP FOR SOUTH DAKOTA
NATIONAL WEATHER SERVICE SIOUX FALLS SD
700 AM CDT WED APR 01 2015

NOTE: "FAIR" INDICATES FEW OR NO CLOUDS BELOW 12,000 FEET WITH NO
SIGNIFICANT WEATHER AND/OR OBSTRUCTIONS TO VISIBILITY.


SDZ001>005-009-010-012>017-011300-
NORTHWEST AND NORTH CENTRAL SOUTH DAKOTA

CITY           SKY/WX    TMP DP  RH WIND       PRES   REMARKS
BUFFALO          N/A     51  36  56 NW37G48   29.47R
FAITH            N/A     60  22  23 NW28G37   29.46R
MOBRIDGE       MOCLDY    47  29  49 SE13      29.36F
$$

SDZ012>016-024>037-041>051-057-063-072>074-011300-
SOUTHWEST AND SOUTH CENTRAL SOUTH DAKOTA

CITY           SKY/WX    TMP DP  RH WIND       PRES   REMARKS
RAPID CTY ARPT PTCLDY    58  33  39 NW43G53   29.51R
PIERRE         CLOUDY    52  30  43 CALM      29.41F
CUSTER         CLOUDY    52  18  26 W8        29.62S
ELLSWORTH AFB  PTCLDY    57  34  41 N35G47    29.52R
PHILIP         CLOUDY    64  19  17 SW12      29.42F
PINE RIDGE     MOCLDY    55  22  27 W8        29.54S
SPEARFISH      FAIR      48  32  53 NW12G17   29.68R
WINNER         FAIR      62  29  28 S22G35    29.49F
$$

SDZ004>011-016>023-039-040-011300-
NORTHEAST SOUTH DAKOTA

CITY           SKY/WX    TMP DP  RH WIND       PRES   REMARKS
ABERDEEN       MOCLDY    52  33  48 SE17      29.44F
WATERTOWN      PTCLDY    50  33  52 SE12      29.55F
BROOKINGS      CLEAR     55  34  44 S21G30    29.62F
SISSETON         N/A     59  34  39 SW25G36   29.48F
$$

SDZ017-020-022-023-036>040-048>070-011300-
SOUTHEAST SOUTH DAKOTA

CITY           SKY/WX    TMP DP  RH WIND       PRES   REMARKS
SIOUX FALLS    PTCLDY    56  32  40 S18       29.65F
HURON          PTCLDY    53  33  46 S15G23    29.50F
CHAMBERLAIN    CLOUDY    60  32  34 S17       29.48F
MITCHELL       PTCLDY    55  34  45 S12       29.56F
YANKTON        CLEAR     59  36  41 S18G30    29.65F
$$

ABBREVIATIONS USED IN REMARKS
   TC - TEMPERATURE IN CELSIUS
  WCI - WIND CHILL INDEX
   HX - HEAT INDEX
  VSB - VISIBILITY




USA.gov is the U.S. government's official web portal to all federal, state and local government web resources and services.